Hourly Data Report for October 02, 2016

All times are specified in Local Standard Time (LST). Add 1 hour to adjust for Daylight Saving Time where and when it is observed.

BATHURST A
NEW BRUNSWICK

47°37'47.000" N
65°44'20.000" W
58.80 m
8100505
71574
ZBF

Download Data

Hourly Data (October 2016)
Hourly Data Report for October 2, 2016
Temp Definition
°C
Dew Point Temp Definition
°C
Rel Hum Definition
%
Wind Dir Definition
10's deg

Wind Spd Definition
km/h
Visibility Definition
km
Stn Press Definition
kPa
Hmdx Definition


Wind Chill Definition


Weather Definition


TIME
00:00 Legend Double Dagger 8.0 7.6 97 9 9 9.7 101.68     Fog
01:00 Legend Double Dagger 8.2 7.9 98 34 4 9.7 101.70     Fog
02:00 Legend Double Dagger 7.4 7.0 97 0 1 9.7 101.67     Fog
03:00 Legend Double Dagger 8.3 7.9 97 36 2 8.1 101.61     Fog
04:00 Legend Double Dagger 6.8 6.4 97 36 1 6.4 101.60     Fog
05:00 Legend Double Dagger 6.9 6.5 97 0 1 6.4 101.57     Fog
06:00 Legend Double Dagger 6.0 5.6 97 36 1 6.4 101.55     Fog
07:00 Legend Double Dagger 6.2 5.8 97 26 3 11.3 101.52     LegendNANA
08:00 Legend Double Dagger 7.7 7.3 97 36 1 11.3 101.47     Mostly Cloudy
09:00 Legend Double Dagger 11.0 9.6 91 36 1 19.3 101.44     LegendNANA
10:00 Legend Double Dagger 14.4 10.5 77 36 1 24.1 101.38     LegendNANA
11:00 Legend Double Dagger 15.3 9.9 70 18 8 24.1 101.35     Mostly Cloudy
12:00 Legend Double Dagger 16.7 10.4 66 19 8 24.1 101.22     LegendNANA
13:00 Legend Double Dagger 17.3 11.4 68 8 8 24.1 101.10     LegendNANA
14:00 Legend Double Dagger 18.1 11.5 65 10 9 24.1 100.98     Mostly Cloudy
15:00 Legend Double Dagger 18.2 11.1 63 10 9 24.1 100.88     LegendNANA
16:00 Legend Double Dagger 16.9 11.5 70 2 13 24.1 100.79     LegendNANA
17:00 Legend Double Dagger 15.6 11.0 74 35 3 24.1 100.73     Mostly Cloudy
18:00 Legend Double Dagger 14.3 11.3 82 36 3 24.1 100.66     LegendNANA
19:00 Legend Double Dagger 12.4 11.2 92 21 4 24.1 100.63     LegendNANA
20:00 Legend Double Dagger 12.3 11.2 93 22 4 24.1 100.58     Cloudy
21:00 Legend Double Dagger 12.8 11.2 90 22 7 24.1 100.53     LegendNANA
22:00 Legend Double Dagger 13.4 11.0 85 26 9 24.1 100.50     LegendNANA
23:00 Legend Double Dagger 12.1 9.0 81 26 12 24.1 100.43     Mostly Cloudy

Notes on Data Quality.

Legend

  • E = Estimated
  • M = Missing
  • NA = Not Available
  • ‡ = Partner data that is not subject to review by the National Climate Archives
Date modified: